#timestamp,LO_Frequency,Hit,StdDev 
1591250415.9,286047000.5,N
1591250435.7,286047000.4,N
1591250455.6,286047001.0,N
1591250475.4,286046998.1,N
1591250495.3,286046998.2,N
1591250515.1,286047001.2,N
1591250516.0,286047001.2,N
1591250535.8,286047000.8,N
1591250555.7,286046999.5,N
1591250575.5,286046998.4,N
1591250595.3,286046999.9,N
1591250615.2,286047000.8,N
1591250635.0,286047000.9,N
1591250635.9,286047000.9,N
1591250655.8,286046999.1,N
1591250675.6,286046998.8,N
1591250695.5,286046999.1,N
1591250715.3,286046996.6,N
1591250735.1,286046997.1,N
1591250755.9,286046998.7,N
1591250775.7,286047000.8,N
1591250795.6,286046996.6,N
1591250815.4,286047001.2,N
1591250835.2,286047000.6,N
1591250855.1,286047001.2,N
1591250856.0,286047001.2,N
1591250875.8,286046999.2,N
1591250895.7,286046998.2,N
1591250915.5,286047000.6,N
1591250935.3,286046998.1,N
1591250955.2,286047000.4,N
1591250975.0,286047000.5,N
1591250975.9,286047000.5,N
1591250995.8,286047000.5,N
1591251015.6,286047000.9,N
1591251035.4,286046999.8,N
1591251055.3,286047000.4,N
1591251075.1,286046999.8,N
1591251095.8,286047002.8,N
1591251115.7,286047002.3,N
1591251135.5,286047002.7,N
1591251155.4,286047000.4,N
1591251175.2,286046999.6,N
1591251195.1,286047000.9,N
1591251196.0,286047000.9,N
1591251215.8,286046999.2,N
1591251235.6,286047000.9,N
1591251255.5,286047000.6,N
1591251275.3,286047000.8,N
1591251295.1,286047000.4,N
1591251315.9,286047001.7,N
1591251335.7,286047002.8,N
1591251355.6,286046998.2,N
1591251375.4,286046999.9,N
1591251395.2,286047001.2,N
1591251415.1,286047000.7,N
1591251416.0,286047000.7,N
1591251435.8,286046999.8,N
1591251455.7,286047000.0,N
1591251475.5,286047000.5,N
1591251495.3,286047000.5,N
1591251515.2,286046998.1,N
1591251535.0,286046999.6,N
1591251535.9,286046999.6,N
1591251555.8,286046999.2,N
1591251575.6,286046996.5,Y
1591251595.4,286047001.1,P
1591251615.3,286047000.6,N
1591251635.1,286046999.5,N
1591251655.9,286046998.5,N
1591251675.7,286046999.5,N
1591251695.5,286046998.2,N
1591251715.4,286047000.6,N
1591251735.2,286047000.9,N
1591251755.1,286047000.1,N
1591251756.0,286047000.1,N
1591251775.8,286047002.8,Y
1591251795.6,286047000.5,P
1591251815.5,286046998.9,P
1591251835.3,286046997.7,P
1591251855.2,286046997.6,N
1591251875.0,286046995.0,Y
1591251875.9,286046995.0,P
1591251895.8,286046996.8,N
1591251915.6,286046995.0,P
1591251935.4,286046998.0,N
1591251955.3,286046995.7,N
1591251975.1,286046996.3,N
1591251995.9,286046995.9,N
1591252015.7,286046993.7,Y
1591252035.5,286046997.4,P
1591252055.4,286046997.1,P
1591252075.2,286046997.1,P
1591252095.1,286046995.0,Y
1591252096.0,286046995.0,P
1591252115.8,286047001.2,N
1591252135.6,286046996.6,N
1591252155.5,286046997.7,N
1591252175.3,286046996.9,N
1591252195.2,286046996.6,N
1591252215.9,286046997.9,N
1591252235.7,286046995.6,N
1591252255.6,286046995.0,Y
1591252275.4,286046999.1,P
1591252295.2,286046996.6,P
1591252315.1,286046999.3,N
1591252316.0,286046999.3,N
1591252335.8,286046996.7,N
1591252355.7,286046998.0,N
1591252375.5,286046997.8,N
1591252395.3,286046997.8,N
1591252415.2,286046997.5,N
1591252435.0,286046997.1,Y
1591252435.9,286046997.1,P
1591252455.8,286047000.9,N
1591252475.6,286046998.2,N
1591252495.4,286047002.4,N
1591252515.3,286047004.0,N
1591252535.1,286047001.8,N
1591252555.9,286047002.5,N
1591252575.7,286047001.6,N
1591252595.5,286047001.9,N
1591252615.4,286047000.2,N
1591252635.2,286047001.1,N
1591252655.0,286047001.0,N
1591252656.0,286047001.0,N
1591252675.8,286047000.0,N
1591252695.6,286047002.4,N
1591252715.5,286047001.7,N
1591252735.3,286047004.1,N
1591252755.1,286047003.9,N
1591252775.9,286046999.7,N
1591252795.7,286047000.1,N
1591252815.6,286047000.2,N
1591252835.4,286047002.2,N
1591252855.2,286047002.4,N
1591252875.1,286047000.5,N
1591252876.0,286047000.5,N
1591252895.8,286047002.3,N
1591252915.7,286047002.8,N
1591252935.5,286047004.1,N
1591252955.3,286047004.0,N
1591252975.2,286047001.8,N
1591252995.0,286047002.1,N
1591252995.9,286047002.1,N
1591253015.8,286047002.0,N
1591253035.6,286047004.4,Y
1591253055.4,286047000.9,P
1591253075.3,286046999.4,N
1591253095.1,286046998.6,N
1591253115.8,286047001.6,N
1591253135.7,286047000.2,N
1591253155.5,286047000.5,N
1591253175.4,286047000.2,N
1591253195.2,286047000.0,N
1591253215.0,286047002.5,N
1591253215.9,286047002.5,N
1591253235.8,286047002.8,N
1591253255.6,286047003.5,N
1591253275.5,286047005.5,Y
1591253295.3,286047004.1,P
1591253315.1,286047004.3,N
1591253335.9,286047004.3,N
1591253355.7,286047003.2,N
1591253375.6,286047001.4,N
1591253395.4,286047002.4,N
1591253415.2,286047001.8,N
1591253435.1,286047001.4,N
1591253436.0,286047001.4,N
1591253455.8,286047001.4,N
1591253475.6,286047001.5,N
1591253495.5,286047002.9,N
1591253515.3,286047004.2,Y
1591253535.2,286046998.6,P
1591253555.9,286046999.9,N
1591253575.7,286046999.7,N
1591253595.6,286047000.5,N
1591253615.4,286047000.8,N
1591253635.3,286046998.5,N
1591253655.1,286046999.3,N
1591253656.0,286046999.3,N
1591253675.8,286046999.4,N
1591253695.7,286046999.4,N
1591253715.5,286046998.0,N
1591253735.3,286046997.6,N
1591253755.2,286046996.6,N
1591253775.0,286046999.1,N
1591253775.9,286046999.1,N
1591253795.8,286047000.5,N
1591253815.6,286046998.5,N
1591253835.4,286046998.9,N
1591253855.3,286047001.1,N
1591253875.1,286046999.8,N
1591253895.8,286047002.2,N
1591253915.7,286047000.4,N
1591253935.5,286046998.2,N
1591253955.4,286047000.2,N
1591253975.2,286047000.7,N
1591253995.0,286046999.3,N
1591253995.9,286046999.3,N
